7 * 24
多渠道服务支持
STARLINK-3352是美国太空探索技术公司(SpaceX)星链星座中的一颗卫星,于2022年1月19日发射升空,属于星链互联网卫星集群的组成部分,旨在为全球提供低延迟、高速率的宽带互联网服务,该星持续在轨运行,服务全球多地的卫星互联网接入。
美国
(US)
| 数据来源 | 国际轨道数据 | AOE轨道数据 |
| 星历时间 | 2026-09-11T10:19:25+0800 15小时前 查看轨道信息 | 2026-09-09T23:00:00+0800 2天前 查看轨道信息 |
| 半长轴 | 6833.418km | 6833.72km |
| 偏心率 | 0.000411 | 0.0003714 |
| 轨道倾角 | 53.186° | 53.188° |
| 近地点辐角 | 112.366° | 111.271° |
| 升交点赤经 | 154.918° | 161.821° |
| 平近点角 | 247.778° | 21.276° |
| 近地点 | 452.472km | 453.044km |
| 远地点 | 458.09km | 458.122km |
| 周期 | 93.695分钟 | 93.701分钟 |
| 每日圈数 | 15.369007 | 15.367989 |
| 事件ID | 空间交会对象 | 最接近时刻(TCA) | 交会距离 | 交会风险概率(CRP) | 交会风险指数(CRI) | 操作 |
|---|---|---|---|---|---|---|
| CDM_260911-215105-114706-960922 |
STARLINK-3352
(51147)
KUIPER-00540
(69609) | 2026-09-11T 21:51:37+0000 |
1.038 km
极远距离 | 2.070296E-5 中风险 | 0.61 |